Wind_Speed
12 11 10 10 9 8 8 8 8 8 8 8 7 7 7 8 7 7 7 7 7 7 7 7 7 7 7 6 7 7 7 4 6 8 10 16 13 12 11 13 11 9 9 10 9
11 11 10 10 9 9 9 8 9 9 9 9 9 9 9 8 8 8 8 9 8 9 9 8 9 9 9 7 7 8 8 5 11 11 10 17 12 13 14 15 13 14 13 12 12
14 13 12 11 11 11 10 10 10 10 10 10 10 10 10 9 9 9 9 10 9 10 10 9 9 9 8 6 6 8 9 11 15 16 16 18 13 19 11 11 16 14 8 12 14
18 17 16 15 14 13 13 12 12 12 12 12 12 12 11 10 6 6 8 9 10 9 9 8 7 6 6 8 10 12 13 15 18 14 15 17 16 16 17 19 18 15 14 15 14
22 21 20 19 17 16 16 15 15 15 14 14 14 13 13 12 12 11 8 6 6 6 7 7 8 10 9 12 11 13 17 13 14 13 15 17 16 18 20 19 19 19 19 17 17
27 25 23 22 21 20 19 18 18 17 17 17 17 17 16 15 14 13 13 13 13 14 14 15 15 12 14 14 13 15 12 12 13 13 15 16 17 22 20 20 20 22 22 20 19
31 29 27 25 24 23 22 22 21 20 19 19 20 20 20 17 16 15 15 15 15 16 17 16 16 15 16 14 14 16 17 16 16 16 19 19 24 26 24 24 22 20 21 22 19
34 33 31 29 27 26 26 25 24 23 23 22 22 24 24 22 20 19 19 18 18 18 18 16 17 17 16 16 16 16 17 16 15 15 16 19 27 22 23 19 21 22 19 19 19
35 35 34 33 32 30 28 28 27 27 26 25 25 26 28 26 24 23 22 22 21 21 21 20 20 20 18 17 16 15 17 12 13 14 18 16 14 17 20 21 20 19 19 21 23
34 36 35 34 35 33 31 30 30 30 29 28 28 26 27 20 12 11 16 22 24 23 23 23 23 23 23 21 18 11 18 17 16 17 19 20 21 25 25 22 21 22 24 25 27
33 33 34 35 35 35 34 33 32 33 34 30 30 27 28 26 20 18 16 19 19 19 25 26 27 31 25 24 22 20 19 17 13 15 21 26 28 25 26 28 29 30 30 29 31
36 33 33 34 34 36 36 34 33 33 36 35 34 37 38 34 32 27 22 23 24 23 21 25 32 23 24 19 21 22 23 26 24 24 27 30 33 30 28 34 34 35 37 36 36
34 35 35 32 35 38 36 32 27 29 36 44 41 43 40 37 38 35 32 28 27 24 27 30 24 14 17 25 26 27 26 25 22 22 26 29 38 38 37 40 42 43 44 45 42
42 39 41 39 41 34 37 26 23 24 26 44 43 48 47 43 45 41 35 33 35 33 29 29 31 30 26 25 23 27 24 21 23 23 18 15 11 24 17 20 31 35 34 37 34
43 42 42 45 42 38 32 22 21 19 6 16 26 35 40 37 40 42 42 43 42 38 35 30 29 29 31 35 27 28 26 23 25 26 25 32 24 33 27 28 39 42 38 39 37
43 45 42 40 44 44 35 32 25 16 16 14 23 29 35 33 37 37 34 41 43 41 39 35 33 23 26 27 27 28 25 23 22 22 12 30 30 26 31 29 29 35 37 38 35
42 44 47 45 46 41 33 40 23 15 28 31 27 26 24 31 38 39 39 43 42 35 38 37 43 37 33 28 24 24 19 3 4 5 8 9 20 41 10 17 21 26 29 30 27
34 36 42 43 41 36 41 38 14 40 47 23 18 24 29 30 38 40 41 41 46 42 16 31 15 32 40 46 33 27 32 13 7 5 4 9 14 18 23 22 31 30 26 26 25
45 40 41 44 48 42 45 46 36 49 40 45 25 22 30 31 26 37 43 46 45 47 36 18 18 17 20 12 31 20 30 30 18 19 8 15 31 37 32 34 31 27 30 26 28
41 40 49 40 36 44 52 54 59 53 19 23 47 28 28 34 33 24 32 37 48 43 43 23 12 20 24 23 25 24 16 17 23 3 6 9 25 27 13 21 25 26 28 29 26
34 39 48 46 36 44 56 57 66 56 32 38 41 37 29 23 28 33 32 32 24 34 34 41 29 15 24 28 30 38 28 15 16 17 4 5 13 16 16 20 20 21 25 28 28
32 33 40 39 44 49 57 64 62 50 45 32 44 34 50 42 39 42 48 40 27 31 34 41 28 22 31 27 26 33 36 41 23 12 26 24 45 20 11 10 14 20 23 27 31
35 35 37 36 37 49 51 56 62 49 57 50 46 47 44 35 32 45 42 40 38 37 34 38 28 17 16 22 25 34 40 42 38 30 41 13 34 12 18 26 20 21 22 28 33
33 30 37 39 39 31 45 56 55 66 60 55 58 44 39 39 42 36 36 38 39 41 33 29 34 36 34 21 23 40 47 49 46 40 29 54 47 33 27 22 18 19 26 27 29
34 35 36 25 43 47 41 36 46 56 59 59 49 55 55 39 45 47 42 25 35 35 34 42 45 45 54 46 30 21 28 38 55 61 37 59 51 48 45 45 44 33 29 32 32
35 36 38 40 34 38 34 37 33 28 48 51 57 58 58 55 60 59 53 45 36 39 41 43 38 42 58 54 53 52 40 34 37 42 54 56 65 39 36 33 37 40 38 38 38
33 38 39 28 32 36 42 44 49 40 40 44 52 54 57 61 63 60 52 47 49 51 44 47 46 37 39 34 36 27 70 64 61 58 56 58 70 50 46 47 42 35 36 35 37
Wind_Direction
190 191 194 195 199 206 211 210 213 219 224 224 230 228 226 224 224 224 231 230 231 235 232 235 240 242 238 231 233 236 235 254 243 222 237 253 247 228 224 230 244 239 244 266 267
210 206 208 212 216 218 222 226 232 233 234 239 239 238 238 238 243 244 239 246 245 245 246 249 250 252 255 246 236 230 229 249 224 214 220 255 231 251 226 243 254 250 255 262 264
220 223 223 225 227 229 232 235 235 237 242 245 247 248 250 251 253 254 252 252 249 251 252 252 255 255 257 251 237 237 226 239 244 248 231 247 227 238 238 227 250 253 256 265 272
230 229 229 230 234 238 240 240 241 242 242 244 247 247 251 253 255 257 253 252 254 251 248 243 233 229 253 271 265 266 256 255 263 257 248 253 240 247 242 238 251 265 267 272 274
235 235 235 235 236 240 244 247 248 246 247 248 248 251 254 253 251 258 265 258 247 235 228 232 250 258 261 264 276 268 266 264 263 257 250 253 253 250 253 254 258 264 267 267 271
242 240 239 240 241 242 245 248 250 252 251 252 253 254 254 256 259 258 260 259 257 257 258 260 262 266 263 264 266 269 274 269 260 254 252 256 256 256 258 262 260 263 268 269 265
246 245 244 244 245 246 247 249 252 253 254 255 256 256 257 257 255 259 260 261 261 262 261 264 265 260 264 264 263 263 269 270 264 262 261 260 259 266 273 273 268 264 263 265 252
247 246 247 246 246 249 250 250 252 254 255 256 257 258 259 258 258 258 261 263 262 261 261 259 259 259 256 264 266 271 276 274 275 270 266 260 266 269 272 273 270 264 259 252 255
245 246 247 248 248 247 250 253 254 254 255 256 258 261 265 259 259 259 261 261 261 259 257 256 256 255 255 259 264 269 264 268 267 265 271 259 266 274 272 269 266 265 263 261 261
245 245 246 248 249 250 250 252 254 256 255 257 257 261 254 256 255 248 259 257 255 255 253 252 253 253 252 244 235 246 257 270 249 262 267 266 263 265 264 262 269 265 266 266 265
245 248 247 246 249 251 250 252 257 259 255 255 257 255 259 256 252 255 258 261 255 248 251 251 249 250 258 258 262 250 259 260 243 270 268 272 277 269 265 260 262 267 270 268 266
243 245 250 251 250 250 250 251 255 263 266 257 254 255 256 253 253 251 255 257 256 256 248 249 251 261 259 247 245 255 248 254 260 267 269 274 274 269 258 263 268 270 272 269 267
240 251 248 249 250 250 249 252 259 266 271 261 255 254 255 253 254 253 252 254 253 249 248 252 255 250 250 238 239 241 246 259 262 270 271 276 275 271 270 269 270 267 267 268 270
247 250 250 247 247 249 251 256 260 267 275 268 262 260 249 250 252 250 249 246 248 249 249 259 256 248 251 252 247 251 260 267 265 256 261 273 281 267 258 248 257 264 264 266 269
243 252 256 239 243 243 246 244 248 250 275 260 234 236 244 238 246 243 240 242 245 246 242 247 258 253 245 252 247 255 258 250 256 259 266 262 275 276 279 267 254 265 264 263 263
242 242 252 251 246 247 249 241 224 196 238 232 230 231 232 230 234 231 228 235 238 239 241 244 248 240 239 243 244 245 251 254 259 266 259 258 245 277 260 277 270 263 259 260 260
238 240 239 247 251 248 249 237 188 197 225 242 230 226 236 228 225 226 228 229 224 216 226 239 237 240 244 241 238 233 232 248 266 202 237 244 238 241 229 255 261 261 261 259 243
238 235 237 235 248 243 252 218 203 225 218 234 228 227 225 227 226 226 224 227 229 226 225 225 232 242 241 246 238 238 231 202 231 214 265 234 243 251 266 265 258 256 255 237 228
238 231 235 231 237 240 231 196 214 229 243 226 235 223 208 218 222 221 226 233 236 226 215 218 231 235 236 235 216 217 212 226 258 283 291 249 261 265 261 263 262 251 242 240 235
239 241 232 232 231 234 233 214 232 230 229 226 224 226 216 216 217 218 221 235 232 231 225 217 225 224 232 231 206 211 221 198 214 226 245 258 259 246 248 274 251 242 239 240 231
243 246 241 236 234 234 219 220 239 237 236 234 228 225 224 214 227 228 233 238 238 238 226 217 220 212 220 218 217 209 205 198 208 219 219 281 260 283 282 257 249 247 244 242 234
243 243 245 239 234 233 226 240 240 237 231 226 230 226 236 240 238 245 244 241 246 247 222 226 220 227 234 249 236 235 241 224 222 225 233 246 262 259 274 256 234 233 233 237 234
240 239 243 239 235 227 234 239 234 236 237 226 226 228 231 238 231 241 243 241 237 237 230 219 216 226 242 238 226 225 230 236 233 235 240 219 254 265 273 252 250 244 232 231 230
235 237 242 241 239 223 238 248 244 242 236 238 239 228 233 229 225 240 241 236 237 238 235 228 221 223 233 232 236 223 227 232 227 225 236 239 246 244 250 268 262 239 231 234 240
229 231 234 238 243 243 250 242 241 237 236 234 231 229 230 230 223 231 232 229 226 228 230 232 230 240 249 242 243 241 243 236 226 239 223 255 253 261 266 263 258 262 248 250 247
234 231 239 240 249 256 246 248 236 245 244 240 235 240 234 233 236 240 227 226 226 228 228 230 231 236 247 248 245 240 244 239 242 246 246 253 264 260 267 271 262 255 252 253 251
230 235 229 241 248 250 254 252 256 263 260 250 251 251 235 238 243 249 241 246 236 233 230 227 229 231 244 249 254 248 244 240 246 250 251 247 268 263 263 257 253 254 253 254 251
Height
3145 3146 3148 3149 3151 3153 3155 3155 3156 3158 3159 3159 3160 3161 3162 3163 3163 3164 3165 3167 3168 3169 3170 3170 3171 3172 3172 3174 3175 3175 3177 3178 3179 3180 3180 3177 3179 3180 3182 3182 3183 3184 3184 3184 3184
3144 3145 3147 3149 3150 3151 3153 3154 3156 3157 3158 3159 3160 3161 3162 3162 3163 3163 3165 3165 3166 3167 3169 3169 3170 3171 3171 3172 3173 3174 3175 3176 3176 3177 3178 3175 3178 3177 3180 3179 3181 3182 3182 3183 3183
3142 3144 3145 3147 3149 3150 3151 3152 3153 3155 3157 3158 3159 3160 3161 3161 3162 3162 3163 3164 3165 3166 3167 3168 3169 3170 3170 3171 3172 3173 3174 3174 3174 3174 3175 3174 3175 3175 3177 3178 3176 3177 3181 3180 3180
3140 3141 3143 3144 3147 3148 3150 3151 3152 3153 3154 3155 3157 3158 3159 3160 3163 3160 3161 3162 3163 3164 3165 3166 3167 3168 3169 3170 3171 3171 3171 3172 3171 3173 3173 3172 3172 3173 3174 3174 3175 3176 3177 3178 3178
3136 3138 3140 3141 3143 3145 3147 3148 3150 3151 3152 3153 3154 3155 3156 3158 3159 3159 3160 3161 3162 3163 3164 3165 3166 3166 3168 3168 3169 3168 3168 3169 3169 3169 3170 3170 3171 3171 3170 3172 3173 3173 3174 3174 3175
3132 3134 3136 3138 3140 3141 3143 3145 3146 3148 3149 3150 3151 3152 3153 3155 3156 3157 3158 3159 3160 3161 3163 3164 3164 3165 3165 3166 3167 3166 3166 3167 3167 3167 3167 3168 3168 3166 3168 3169 3170 3170 3170 3170 3171
3128 3130 3131 3133 3136 3137 3139 3140 3142 3144 3146 3146 3147 3148 3149 3152 3152 3154 3155 3156 3157 3158 3159 3161 3162 3163 3163 3164 3165 3165 3165 3164 3164 3165 3165 3165 3164 3162 3163 3164 3165 3165 3166 3166 3167
3122 3124 3126 3128 3130 3133 3134 3136 3138 3139 3141 3142 3143 3143 3144 3147 3149 3150 3151 3153 3154 3155 3157 3158 3159 3160 3161 3163 3163 3163 3162 3162 3161 3161 3161 3162 3158 3160 3160 3160 3159 3161 3162 3163 3164
3115 3117 3120 3123 3125 3127 3129 3131 3132 3134 3136 3137 3139 3139 3139 3142 3144 3146 3147 3148 3150 3151 3153 3154 3155 3156 3159 3160 3160 3159 3159 3159 3159 3158 3158 3158 3156 3155 3156 3156 3156 3157 3158 3159 3160
3108 3111 3113 3116 3119 3121 3123 3125 3126 3128 3130 3132 3133 3137 3136 3138 3139 3140 3142 3143 3144 3147 3148 3150 3150 3151 3153 3154 3155 3157 3157 3156 3156 3156 3153 3153 3153 3151 3152 3153 3152 3152 3153 3154 3154
3101 3104 3106 3109 3112 3115 3118 3120 3124 3123 3123 3128 3127 3127 3129 3133 3135 3136 3138 3139 3140 3141 3143 3144 3145 3143 3147 3150 3151 3153 3153 3153 3154 3151 3150 3149 3147 3148 3147 3147 3147 3146 3147 3148 3147
3094 3097 3100 3102 3105 3107 3110 3113 3115 3117 3114 3118 3120 3119 3120 3125 3127 3130 3133 3135 3136 3137 3139 3138 3135 3142 3144 3146 3147 3147 3147 3148 3149 3147 3147 3144 3140 3141 3140 3138 3140 3140 3139 3139 3139
3085 3090 3093 3095 3097 3099 3104 3109 3113 3113 3109 3105 3109 3109 3113 3118 3118 3122 3126 3129 3130 3132 3132 3131 3134 3136 3138 3139 3141 3142 3142 3144 3146 3144 3141 3139 3131 3132 3134 3132 3130 3130 3130 3128 3130
3075 3081 3085 3087 3089 3095 3098 3106 3109 3110 3105 3092 3095 3095 3100 3106 3107 3112 3118 3122 3122 3124 3129 3126 3129 3130 3133 3133 3136 3137 3139 3140 3140 3141 3137 3136 3123 3123 3124 3124 3121 3121 3121 3118 3120
3069 3072 3075 3077 3081 3085 3095 3100 3103 3107 3106 3088 3083 3080 3085 3096 3098 3098 3107 3109 3111 3116 3120 3117 3120 3122 3125 3126 3131 3130 3133 3135 3134 3133 3131 3130 3127 3106 3113 3112 3112 3110 3112 3111 3112
3058 3063 3067 3064 3069 3076 3084 3091 3093 3103 3084 3074 3073 3073 3078 3084 3087 3090 3096 3100 3105 3108 3109 3112 3113 3116 3118 3120 3124 3124 3128 3129 3129 3129 3122 3120 3121 3095 3102 3100 3102 3102 3103 3103 3104
3047 3053 3057 3058 3061 3067 3073 3073 3077 3074 3067 3063 3064 3069 3075 3077 3078 3083 3085 3088 3094 3099 3098 3103 3104 3107 3111 3115 3118 3120 3124 3126 3127 3125 3112 3110 3108 3089 3096 3095 3095 3093 3095 3096 3097
3037 3042 3046 3050 3051 3056 3060 3059 3055 3053 3051 3055 3059 3064 3066 3070 3071 3075 3079 3080 3083 3088 3093 3094 3097 3096 3099 3101 3109 3111 3116 3119 3120 3113 3105 3103 3090 3083 3085 3089 3089 3089 3089 3089 3092
3028 3031 3034 3041 3044 3049 3044 3041 3036 3039 3045 3055 3057 3056 3058 3060 3065 3067 3067 3069 3071 3075 3084 3088 3088 3087 3091 3096 3103 3103 3105 3110 3110 3106 3103 3091 3081 3079 3080 3082 3081 3082 3083 3085 3088
3017 3018 3022 3031 3036 3039 3031 3026 3025 3035 3045 3046 3045 3050 3049 3053 3058 3062 3061 3057 3060 3065 3074 3081 3084 3081 3083 3089 3092 3094 3099 3104 3108 3108 3102 3078 3074 3068 3070 3073 3074 3075 3077 3079 3083
3010 3009 3011 3022 3026 3021 3014 3014 3015 3027 3038 3041 3040 3046 3047 3047 3051 3052 3053 3054 3057 3060 3067 3071 3075 3076 3076 3075 3080 3085 3087 3092 3094 3094 3089 3080 3063 3061 3064 3067 3069 3071 3073 3076 3079
2999 3000 3002 3009 3011 3005 3003 3003 3014 3016 3028 3029 3034 3036 3040 3046 3044 3045 3044 3049 3054 3056 3057 3061 3065 3065 3066 3069 3073 3076 3075 3079 3083 3084 3078 3076 3040 3058 3062 3065 3066 3068 3069 3071 3075
2987 2990 2992 2999 2996 2995 2999 2999 3005 3009 3012 3017 3021 3025 3032 3035 3038 3034 3037 3042 3046 3046 3049 3051 3056 3061 3061 3062 3061 3064 3067 3067 3073 3073 3060 3072 3035 3053 3057 3059 3063 3065 3065 3067 3069
2980 2982 2983 2986 2987 2986 2990 2988 2993 2997 3001 3005 3009 3019 3021 3023 3028 3024 3028 3035 3038 3039 3044 3044 3046 3044 3039 3046 3048 3050 3053 3055 3058 3054 3056 3038 3043 3048 3053 3055 3058 3059 3060 3061 3063
2968 2968 2972 2972 2974 2978 2981 2980 2981 2985 2989 2994 2996 3001 3007 3010 3015 3013 3022 3025 3028 3030 3034 3034 3034 3037 3031 3038 3042 3041 3042 3043 3043 3034 3045 3020 3034 3041 3046 3050 3051 3053 3053 3054 3055
2956 2960 2962 2963 2967 2970 2971 2971 2972 2978 2981 2981 2985 2991 2997 2996 2997 3001 3012 3015 3016 3019 3022 3022 3022 3027 3020 3026 3029 3031 3031 3028 3029 3032 3030 3030 3014 3033 3038 3040 3041 3042 3044 3045 3047
2947 2950 2953 2952 2957 2961 2959 2962 2965 2971 2971 2973 2977 2981 2981 2983 2991 2996 3000 3002 3003 3004 3008 3012 3013 3016 3009 3017 3020 3019 2999 3015 3015 3016 3019 3017 2997 3025 3029 3029 3031 3034 3034 3037 3040